This demonstration page uses our WeatherBlox Daily Observations layout. Learn more.

Left ArrowRight Arrow

38.20091, -84.87328

Hourly Observations for August 22, 2022

Temp ( °F °C ) Dew Point ( °F °C ) Humidity (%) Winds ( mph kmh ) Pressure ( in mb ) Visibility ( mi km ) Precip ( " mm )
12:53 am 00:53 Mostly Clear 70 21.1 69 20.6 97 97 Calm 29.95 1014 10 16 0.00 0.00
1:53 am 01:53 Mostly Clear 69 20.6 68 20 96 96 Calm 29.95 1014 7 11 0.00 0.00
2:53 am 02:53 Cloudy 71 21.7 69 20.6 93 93 WNW 3 6 29.94 1014 10 16 0.00 0.00
3:53 am 03:53 Clear 70 21.1 68 20 93 93 NW 5 7 29.94 1014 10 16 0.00 0.00
4:53 am 04:53 Clear 68 20 67 19.4 96 96 Calm 29.94 1014 9 14 0.00 0.00
5:53 am 05:53 Clear 67 19.4 66 18.9 97 97 Calm 29.95 1014 8 13 0.00 0.00
6:53 am 06:53 Clear 65 18.3 64 17.8 97 97 Calm 29.95 1014 7 11 0.00 0.00
7:39 am 07:39 Sunny with Mist and Fog 65 18.3 64 17.8 97 97 SW 3 6 29.98 1015 1 2 0.00 0.00
7:44 am 07:44 Partly Cloudy with Mist and Fog 66 18.9 65 18.3 96 96 SW 3 6 29.98 1015 3 5 0.00 0.00
7:53 am 07:53 Partly Cloudy with Mist and Fog 66 18.9 65 18.3 96 96 SW 3 6 29.98 1015 5 8 0.00 0.00
8:00 am 08:00 Mostly Cloudy with Mist and Fog 67 19.4 66 18.9 97 97 Calm 29.98 1015 5 8 0.00 0.00
8:32 am 08:32 Cloudy 69 20.6 67 19.4 93 93 Calm 29.99 1016 8 13 0.00 0.00
8:53 am 08:53 Cloudy 69 20.6 66 18.9 90 90 Calm 29.99 1016 7 11 0.00 0.00
9:02 am 09:02 Cloudy with Mist and Fog 69 20.6 66 18.9 90 90 NNW 5 7 29.99 1016 6 10 0.00 0.00
9:24 am 09:24 Cloudy with Mist and Fog 70 21.1 67 19.4 90 90 Calm 29.99 1015 6 10 0.00 0.00
9:53 am 09:53 Cloudy with Mist and Fog 71 21.7 67 19.4 87 87 Calm 30.00 1016 6 10 0.00 0.00
10:15 am 10:15 Cloudy with Mist and Fog 71 21.7 67 19.4 87 87 VRB 3 6 30.00 1016 6 10 0.00 0.00
10:53 am 10:53 Mostly Cloudy 74 23.3 67 19.4 79 79 VRB 5 7 30.01 1016 9 14 0.00 0.00
11:11 am 11:11 Mostly Sunny 74 23.3 67 19.4 79 79 W 3 6 30.00 1016 10 16 0.00 0.00
11:53 am 11:53 Partly Cloudy 78 25.6 69 20.6 74 74 VRB 3 6 30.01 1016 10 16 0.00 0.00
12:21 pm 12:21 Mostly Cloudy 78 25.6 67 19.4 69 69 NW 5 7 29.99 1015 10 16 0.00 0.00
12:36 pm 12:36 Mostly Cloudy 77 25 67 19.4 71 71 Calm 29.99 1016 10 16 0.00 0.00
12:53 pm 12:53 Mostly Cloudy 78 25.6 67 19.4 69 69 VRB 3 6 30.00 1016 10 16 0.00 0.00
1:53 pm 13:53 Partly Cloudy 80 26.7 67 19.4 64 64 WNW 6 9 29.98 1015 10 16 0.00 0.00
2:53 pm 14:53 Sunny 82 27.8 66 18.9 58 58 VRB 7 11 29.97 1015 10 16 0.00 0.00
3:53 pm 15:53 Partly Cloudy 80 26.7 66 18.9 62 62 NW 9 15 29.96 1015 10 16 0.00 0.00
4:53 pm 16:53 Mostly Sunny 82 27.8 65 18.3 56 56 NW 8 13 29.95 1014 10 16 0.00 0.00
5:53 pm 17:53 Mostly Sunny 82 27.8 66 18.9 58 58 NNW 9 15 29.95 1014 10 16 0.00 0.00
6:53 pm 18:53 Sunny 80 26.7 65 18.3 60 60 NNW 10 17 29.95 1014 10 16 0.00 0.00
7:53 pm 19:53 Sunny 77 25 66 18.9 69 69 NNW 6 9 29.96 1015 10 16 0.00 0.00
8:53 pm 20:53 Clear 71 21.7 66 18.9 84 84 Calm 29.97 1015 10 16 0.00 0.00
9:53 pm 21:53 Clear 67 19.4 65 18.3 93 93 Calm 29.98 1015 10 16 0.00 0.00
10:53 pm 22:53 Clear 68 20 65 18.3 90 90 Calm 29.99 1016 10 16 0.00 0.00
11:53 pm 23:53 Clear 65 18.3 64 17.8 97 97 Calm 29.99 1016 10 16 0.00 0.00

Powered by AerisWeather